User: anonymous   Login
Location: Unspecified
(0.0000°N, 0.0000°E)
Time: 00:05:36
(UTC+00:00)
Language:

Oscar 11 - Orbit

View from above orbital plane
View from above orbital plane
View from above satellite
View from above satellite

Ground track
Ground track

The orbit data is extracted from the following two-line orbital elements,

1 14781U 84021B   17172.68858577 +.00000082 +00000-0 +16388-4 0  9998
2 14781 097.6968 218.2386 0008560 174.8968 185.2335 14.82902911770019
Epoch (UTC): 21 June 2017 16:31:33
Eccentricity: 0.0008560
inclination: 97.6968°
perigee height: 614 km
apogee height: 626 km
right ascension of ascending node: 218.2386°
argument of perigee: 174.8968°
revolutions per day: 14.82902911
mean anomaly at epoch: 185.2335°
orbit number at epoch: 77001

The dashed part of the orbit path shows where the satellite is in the earth's shadow,  

DLR